Regional Weather Roundup
Issued by NWS Kansas City/Pleasant Hill, MO

Home | Current Version | Previous Version | Graphics & Text | Print | Product List | Glossary Off
Versions: 1 2 3 4 5 6 7 8 9 10 11 12 13 14 15 16 17 18 19 20 21 22 23 24 25 26 27 28 29 30 31 32 33 34 35 36 37 38 39 40 41 42 43 44 45 46 47 48 49 50

000
ASUS43 KEAX 200710
RWREAX

WEATHER ROUNDUP FOR EASTERN KANSAS AND NORTHWEST MISSOURI
NATIONAL WEATHER SERVICE KANSAS CITY/PLEASANT HILL MO
100 AM CST SAT DEC 20 2014

KSZ040-057-103>105-MOZ028-029-037-043-200800-
...KANSAS CITY METROPOLITAN AREA...

CITY           SKY/WX    TMP DP  RH WIND       PRES   REMARKS
K.C. INTL      FRZ DRZL  32  31  96 S3        30.19F FOG
K.C. DOWNTOWN  CLOUDY    34  31  88 W5        30.21F WCI  30
LEES SUMMIT    CLOUDY    34  33  96 CALM      30.20F FOG
OLATHE - IXD   CLOUDY    32  31  96 W3        30.20F FOG
OLATHE - OJC   CLOUDY    33  32  96 NW3       30.19S FOG
LAWRENCE       CLOUDY    33  28  81 SW5       30.21F WCI  29

$$

MOZ001>008-011>017-020>025-030>033-038>040-044>046-053-054-200800-
...NORTHERN AND CENTRAL MISSOURI...

CITY           SKY/WX    TMP DP  RH WIND       PRES   REMARKS
ST. JOSEPH     CLOUDY    32  29  88 SW7       30.20F WCI  26
MOSBY          CLOUDY    32  32 100 CALM      30.21F FOG
WARRENSBURG    CLOUDY    36  34  93 CALM      30.20F FOG
WHITEMAN AFB   CLOUDY    36  35  97 SE1       30.20S FOG
CLINTON        FOG       37  37 100 CALM      30.21F VSB 1/4
SEDALIA        FOG       37  36  96 SE5       30.21F VSB 3/4 WCI  33
WARSAW         NOT AVBL
CHILLICOTHE      N/A     33  32  96 CALM      30.22F
MOBERLY        CLOUDY    34  30  86 SE3       30.23S FOG
KIRKSVILLE     CLOUDY    32  31  96 SE7       30.22F FOG     WCI  26

$$

MOZ041-047>049-056>058-063>065-088>090-097-200800-
...EASTERN AND SOUTHERN MISSOURI...

CITY           SKY/WX    TMP DP  RH WIND       PRES   REMARKS
ST. LOUIS INTL CLOUDY    36  26  67 SE6       30.27F WCI  31
SPIRIT OF STL  CLOUDY    35  28  75 SE3       30.26F
COLUMBIA       CLOUDY    35  33  92 SE5       30.22S FOG     WCI  31
JEFFERSON CITY CLOUDY    36  32  85 SE5       30.24F FOG     WCI  32
MEXICO         CLOUDY   N/A N/A N/A SE5       30.23F HAZE
HANNIBAL       CLOUDY    34  27  75 CALM      30.25
ROLLA          CLOUDY    34  32  92 SE5       30.19F WCI  30
LEBANON        CLOUDY    36  34  93 S5        30.20S WCI  32
OSAGE BEACH    CLOUDY    37  34  87 S3        30.21F
SPRINGFIELD    CLOUDY    37  35  92 S8        30.18F WCI  31
BRANSON        LGT RAIN  37  36  93 CALM      30.20F
NEVADA         FOG       36  36 100 NW3       30.21S VSB 1/4
JOPLIN         CLOUDY    38  38 100 W6        30.21S FOG     WCI  33
WEST PLAINS    LGT SNOW  34  31  88 SE3       30.22F FOG

$$

IAZ060-094-KSZ022-034>040-054-083-096-NEZ052-066-093-200800-
...KANSAS...SOUTHEAST NEBRASKA AND IOWA...

CITY           SKY/WX    TMP DP  RH WIND       PRES   REMARKS
TOPEKA         CLOUDY    34  29  82 SE6       30.20F WCI  29
MANHATTAN      CLEAR     33  31  92 S7        30.14F WCI  27
EMPORIA        CLOUDY    33  30  88 S7        30.19R WCI  27
CHANUTE        CLOUDY    35  34  96 CALM      30.22R FOG
WICHITA        CLOUDY    38  34  85 S9        30.17F WCI  31
OMAHA          FRZ DRZL  31  30  96 SE10      30.14S FOG     WCI  22
LINCOLN        CLOUDY    33  31  92 S7        30.11F FOG     WCI  27
FALLS CITY     CLOUDY    31  28  89 SE7       30.16F WCI  24
LAMONI         CLOUDY    30  29  96 SW7       30.18S WCI  23
DES MOINES     LGT SNOW  32  30  92 S6        30.18F FOG     WCI  26

$$




USA.gov is the U.S. government's official web portal to all federal, state and local government web resources and services.